sat.trackr.live / text

‹ back to catalog

STARLINK-1810

NORAD 46709 · 2020-073AR

PAYLOAD ACTIVE UNKNOWN

§ Identity

Operator
Country
US
Launch date
2020-10-18
Launch site
AFETR
Launch vehicle
Mass (kg)
RCS (m²)

Purposes: comms

External: N2YO · Heavens-Above · Gunter

§ Orbital elements

Epoch: 2026-09-12T06:00:02.000160Z

Period
90.66 min
Inclination
53.0328°
Eccentricity
0.0006364
Mean motion
15.88387718 rev/d
Perigee alt
302.5 km
Apogee alt
311.1 km
Semi-major
6,684.9 km
B*
9.5953e-4
RAAN
36.7147°
Arg perigee
312.2936°
Mean anomaly
237.0259°
Rev number
590

§ Raw data

STARLINK-18101 46709U 20073AR  26255.25002315  .00279820  00000+0  95953-3 0  99972 46709  53.0328  36.7147 0006364 312.2936 237.0259 15.88387718  5900

JSON: /api/v1/satellites/46709 · /tle

For live sub-satellite position, see the globe view (requires WebGL).

§ Visibility from observer

Set your observer location to see the next 7 days of passes ≥ 10°. The values pass through the URL so the page stays shareable.

No JS? Fill the form by hand. The geolocation button needs JavaScript.